Weather in La Maddalena

Italy     41°12′52″N   9°24′35″E
temp.,
°C
wind,
m/s
gust,
m/s
humid.,
%
clouds,
%
prec.,
mm/h
press.,
hPa
HPBL,
m
8 december, wed
wed801:00+13wsw7974100 0.0 1011561
04:00+12s557194 0.1 1009191
07:00+13s7875100 0.1 1006253
10:00+14s7107890 0.1 1005588
13:00+16wsw101481100 0.8 10021066
16:00+15wsw1115728 1.4 10011344
19:00+14sw1013695 1.6 10011315
22:00+12wsw16197218 0.4 10001560
9 december, thu
thu901:00+12w151768100 1.4 10011790
04:00+12wnw17196090 0.8 10012061
07:00+12w16185997 0.8 10022135
10:00+12w17196065 0.1 10021985
13:00+12w19216374 0.1 10011917
16:00+11wnw17186080 0.1 10031887
19:00+12wnw15166230 0.1 10051635
22:00+12wnw1718578 0.0 10061683
10 december, fri
fri1001:00+12wnw1516585 0.0 10071617
04:00+12w14155899 0.0 10071428
07:00+12w131460100 0.0 10071530
10:00+12w131470100 0.0 10061465
13:00+12w11158397 2.9 10041346
16:00+14w1720703 0.6 10011742
19:00+13w15186726 0.8 10001718
22:00+13w17216598 0.4 9992431
11 december, sat
sat1101:00+12wnw18216463 0.8 9971978
04:00+11wnw151865100 0.0 9981544
07:00+10nw556793 0.1 1000912
10:00+11n131565100 0.4 10041800
13:00+12w656070 0.6 1004716
16:00+12n151661100 0.4 10081725
19:00+13n12165523 0.4 10111864
22:00+13n1316525 0.0 10141680
12 december, sun
sun1201:00+12nnw66530 0.0 1016654
04:00+11wsw44630 0.0 1017265
07:00+11wsw55610 0.0 1019362
10:00+13w78650 0.0 1021687
13:00+13w98680 0.0 1021760
16:00+13w77650 0.0 1023663
19:00+12w55653 0.0 1025630
22:00+12w55675 0.0 1026604